This is the latest recevied weather packets stored in our database for station/object DB0SVX. If no packets are shown the sender has not sent any weather packets the latest 10 day(s).
| Time | Temp. | Humidity | Pressure | Rain* | Wind** | Luminosity | Snow |
|---|---|---|---|---|---|---|---|
| 1777168518 | 2.78° C | 52% | 1018 hPa | 0 mm | - | - | - |
| 1777167618 | 2.78° C | 52% | 1017.9 hPa | 0 mm | - | - | - |
| 1777166718 | 2.78° C | 52% | 1018 hPa | 0 mm | - | - | - |
| 1777165818 | 3.33° C | 52% | 1017.9 hPa | 0 mm | - | - | - |
| 1777164918 | 3.89° C | 52% | 1018 hPa | 0 mm | - | - | - |
| 1777164018 | 3.89° C | 53% | 1017.9 hPa | 0 mm | - | - | - |
| 1777163118 | 3.89° C | 53% | 1017.9 hPa | 0 mm | - | - | - |
| 1777162218 | 3.89° C | 53% | 1017.7 hPa | 0 mm | - | - | - |
| 1777161318 | 4.44° C | 53% | 1017.7 hPa | 0 mm | - | - | - |
| 1777160418 | 5° C | 53% | 1017.7 hPa | 0 mm | - | - | - |
| 1777159518 | 5° C | 53% | 1017.5 hPa | 0 mm | - | - | - |
| 1777158618 | 5° C | 53% | 1017.5 hPa | 0 mm | - | - | - |
| 1777157719 | 5.56° C | 52% | 1017.5 hPa | 0.51 mm | - | - | - |
| 1777156818 | 5.56° C | 52% | 1017.4 hPa | 0.51 mm | - | - | - |
| 1777155918 | 6.11° C | 52% | 1017.5 hPa | 1.27 mm | - | - | - |
| 1777155018 | 6.67° C | 51% | 1017.5 hPa | 41.66 mm | - | - | - |
| 1777154118 | 7.22° C | 51% | 1017.4 hPa | 42.16 mm | - | - | - |
| 1777153218 | 7.78° C | 50% | 1017.4 hPa | 37.59 mm | - | - | - |
| 1777152318 | 8.33° C | 49% | 1017.2 hPa | 88.39 mm | - | - | - |
| 1777151418 | 8.89° C | 48% | 1017.2 hPa | 0 mm | - | - | - |
| 1777150518 | 9.44° C | 46% | 1017.2 hPa | 0 mm | - | - | - |
| 1777149618 | 10° C | 45% | 1017 hPa | 0 mm | - | - | - |
| 1777148719 | 10° C | 44% | 1016.9 hPa | 0 mm | - | - | - |
| 1777147818 | 10.56° C | 43% | 1016.7 hPa | 42.93 mm | - | - | - |
| 1777146917 | 11.11° C | 41% | 1016.5 hPa | 53.85 mm | - | - | - |
* Rain latest hour (hover to see other rain measurements)
** Current wind speed in m/s (hover to see current wind gust speed)